Weather History for Fort Campbell, KY

Change the Weather History Date:

Saturday, April 6, 2013

  Actual Average Record
Temperature  
Mean Temperature 58 °F -  
Max Temperature 74 °F 66 °F 82 °F (2001)
Min Temperature 42 °F 45 °F 27 °F (2007)
Degree Days  
Heating Degree Days 8    
Growing Degree Days 8 (Base 50)    
Moisture  
Dew Point 38 °F    
Average Humidity 45    
Maximum Humidity 100    
Minimum Humidity 24    
Precipitation  
Precipitation 0.00 in - - ()
Sea Level Pressure  
Sea Level Pressure 30.05 in    
Wind  
Wind Speed 7 mph (South)    
Max Wind Speed 16 mph    
Max Gust Speed 23 mph    
Visibility 10 miles    
Events Rain    
Averages and records for this station are not official NWS values.
T = Trace of Precipitation, MM = Missing Value Source: NWS Daily Summary

Daily Weather History Graph

Daily Weather History Graph

Search for Another Location

Airport:

Trip Planner

Search our weather history database for the weather conditions in past years. The results will help you decide how hot, cold, wet, or windy it might be!

Date:

Astronomy

Apr. 06, 2013 Rise Set
Actual Time 6:28 AM CDT 7:16 PM CDT
Civil Twilight 6:02 AM CDT 7:43 PM CDT
Nautical Twilight 5:31 AM CDT 8:14 PM CDT
Astronomical Twilight 4:59 AM CDT 8:46 PM CDT
Moon 4:06 AM CDT (4/6) 3:50 PM CDT (4/6)
Length of Visible Light 13h 40m
Length of Day
12h 48m
Waning Crescent, 15% of the Moon is Illuminated
Apr 6
Waning Crescent
Apr 10
New
Apr 18
First Quarter
Apr 25
Full
May 2
Last Quarter

Hourly Weather History & Observations

Time (CDT) Temp. Windchill Dew Point Humidity Pressure Visibility Wind Dir Wind Speed Gust Speed Precip Events Conditions
12:55 AM 47.3 °F - 42.3 °F 83% 30.11 in 10.0 mi Calm Calm - N/A   Clear
1:55 AM 47.1 °F - 42.3 °F 83% 30.11 in 10.0 mi Calm Calm - N/A   Clear
2:55 AM 45.3 °F 44.0 °F 45.3 °F 100% 30.09 in 10.0 mi SE 3.5 mph - N/A   Clear
3:55 AM 46.0 °F - 44.1 °F 93% 30.09 in 10.0 mi Calm Calm - N/A   Clear
4:55 AM 43.3 °F - 43.3 °F 100% 30.09 in 10.0 mi Calm Calm - N/A   Clear
5:55 AM 42.1 °F 40.2 °F 42.1 °F 100% 30.11 in 10.0 mi East 3.5 mph - N/A   Clear
6:55 AM 43.3 °F 40.7 °F 43.3 °F 100% 30.12 in 10.0 mi ESE 4.6 mph - N/A   Clear
7:55 AM 48.0 °F - 47.8 °F 99% 30.12 in 10.0 mi ESE 6.9 mph - N/A   Clear
8:55 AM 54.9 °F - 40.8 °F 59% 30.12 in 10.0 mi SSE 9.2 mph - N/A   Clear
9:55 AM 63.1 °F - 39.0 °F 41% 30.11 in 10.0 mi South 8.1 mph - N/A   Clear
10:55 AM 68.0 °F - 36.1 °F 31% 30.11 in 10.0 mi SSW 15.0 mph - N/A   Clear
11:28 AM 68.0 °F - 35.6 °F 30% 30.10 in 10.0 mi South 11.5 mph - N/A   Light Drizzle
11:33 AM 69.8 °F - 37.4 °F 31% 30.10 in 10.0 mi South 11.5 mph 18.4 mph N/A   Clear
11:34 AM 69.8 °F - 37.4 °F 31% 30.10 in 10.0 mi South 11.5 mph 18.4 mph N/A   Light Drizzle
11:38 AM 69.8 °F - 35.6 °F 28% 30.10 in 10.0 mi SSW 13.8 mph 19.6 mph N/A   Clear
11:55 AM 69.8 °F - 35.1 °F 28% 30.09 in 10.0 mi South 16.1 mph 23.0 mph 0.00 in   Clear
12:03 PM 69.8 °F - 35.6 °F 28% 30.09 in 10.0 mi South 9.2 mph - N/A   Light Drizzle
12:13 PM 69.8 °F - 35.6 °F 28% 30.08 in 10.0 mi SSW 15.0 mph 20.7 mph N/A   Clear
12:27 PM 71.6 °F - 35.6 °F 27% 30.08 in 10.0 mi South 10.4 mph 20.7 mph N/A Rain Light Rain
12:35 PM 71.6 °F - 35.6 °F 27% 30.08 in 10.0 mi SSW 11.5 mph 23.0 mph N/A   Clear
12:54 PM 69.8 °F - 35.6 °F 28% 30.06 in 10.0 mi SSE 10.4 mph - N/A   Light Drizzle
12:55 PM 70.3 °F - 35.6 °F 28% 30.06 in 10.0 mi SSE 12.7 mph - 0.00 in   Light Drizzle
1:09 PM 71.6 °F - 35.6 °F 27% 30.06 in 10.0 mi South 12.7 mph 21.9 mph N/A   Partly Cloudy
1:16 PM 69.8 °F - 35.6 °F 28% 30.05 in 10.0 mi SSE 15.0 mph - N/A Rain Light Rain
1:26 PM 71.6 °F - 35.6 °F 27% 30.05 in 10.0 mi SSE 13.8 mph 19.6 mph N/A   Scattered Clouds
1:55 PM 72.5 °F - 36.0 °F 26% 30.03 in 10.0 mi South 15.0 mph - 0.00 in   Partly Cloudy
2:55 PM 73.4 °F - 34.3 °F 24% 29.99 in 10.0 mi South 10.4 mph - N/A   Clear
3:55 PM 72.5 °F - 33.6 °F 24% 29.96 in 10.0 mi South 13.8 mph - N/A   Clear
4:55 PM 73.4 °F - 35.8 °F 25% 29.95 in 10.0 mi SW 16.1 mph - N/A   Partly Cloudy
5:55 PM 73.2 °F - 34.2 °F 24% 29.93 in 10.0 mi South 11.5 mph - N/A   Clear
6:55 PM 71.1 °F - 35.2 °F 27% 29.94 in 10.0 mi South 10.4 mph - N/A   Clear
7:55 PM 67.5 °F - 36.3 °F 32% 29.93 in 10.0 mi South 5.8 mph - N/A   Clear
8:55 PM 64.9 °F - 36.7 °F 35% 29.95 in 10.0 mi South 8.1 mph - N/A   Clear
9:55 PM 63.9 °F - 36.5 °F 36% 29.96 in 10.0 mi SSE 8.1 mph - N/A   Clear
10:55 PM 62.8 °F - 36.7 °F 38% 29.97 in 10.0 mi South 6.9 mph - N/A   Clear
11:55 PM 61.9 °F - 36.1 °F 38% 29.97 in 10.0 mi South 8.1 mph - N/A   Partly Cloudy